Location: Helds Island Access
(38.5526°N, 91.5997°W)
Time: 07:57:45
(UTC-05:00)

Daily predictions for brighter satellites

Satellite Brightness Start Highest point End
(mag) Time Altitude Azimuth Time Altitude Azimuth Time Altitude Azimuth
USA 234 4.4 20:45:22 10° E 20:51:08 34° NNE 20:56:55 10° NNW
H-2A R/B 2.7 20:49:23 10° SE 20:53:18 38° ENE 20:57:19 10° N
Abrixas rocket 3.7 20:56:48 10° NW 20:59:56 32° NNE 21:03:03 10° E
ATLAS CENTAUR R/B 2.7 20:56:23 10° SW 21:01:13 56° NW 21:06:12 10° NNE
SL-24 R/B - RUBIN 2 4.3 20:57:23 10° SSW 21:02:41 83° WNW 21:08:46 10° NNE
Cosmos 2237 Rocket 3.4 20:59:14 10° SW 21:04:38 48° WNW 21:10:06 10° NNE
Resurs 01 Rocket 4.4 21:02:17 10° SW 21:05:00 16° W 21:07:46 10° NW
SJ-11-01 4.4 21:03:06 10° SSE 21:07:42 62° ENE 21:12:19 10° N
GEOS 3 Rocket 4.1 21:04:02 10° SSE 21:09:14 60° WSW 21:14:26 10° NW
Atlas Centaur 2 3.7 21:03:28 10° SW 21:09:54 31° SSE 21:17:02 10° E
Cosmos 2278 Rocket 3.0 21:08:11 10° NNW 21:13:40 51° WSW 21:19:07 10° S
Meteor 1-15 Rocket 4.4 21:11:25 10° N 21:16:53 53° ENE 21:22:12 11° SSE
Cosmos 2228 3.4 21:13:29 10° N 21:17:45 46° E 21:21:32 13° SSE
Cosmos 1025 Rocket 4.0 21:14:08 10° SSW 21:18:24 51° W 21:22:41 10° N
Cosmos 494 Rocket 3.9 21:13:36 10° SSW 21:18:42 83° ESE 21:23:51 10° NNE
PSLV R/B 4.0 21:15:37 10° SW 21:18:53 36° SSE 21:22:10 10° E
Aureole 2 Rocket 2.8 21:16:21 10° S 21:20:18 55° ESE 21:23:56 10° NNE
USA 186 3.6 21:17:55 10° SSW 21:20:28 26° W 21:22:52 10° NW
COSMOS 2455 3.7 21:16:29 10° SSE 21:21:25 27° ESE 21:26:21 10° NE
Cosmos 1939 Rocket 3.1 21:18:34 12° SSE 21:22:24 59° ENE 21:26:30 10° N
Cosmos 1892 Rocket 3.9 21:18:12 10° SSW 21:22:36 69° W 21:27:04 10° N
Cosmos 2369 Rocket 4.2 21:24:17 10° NNE 21:27:31 15° NE 21:30:43 10° E
SPOT 5 3.0 21:26:56 16° SE 21:30:18 48° ENE 21:34:29 10° N
SL-16 R/B 2.7 21:26:01 10° SSW 21:31:37 65° WNW 21:37:15 10° NNE
Cosmos 1666 2.7 21:28:00 10° N 21:31:53 65° E 21:34:49 17° SSE
Nimbus 7 Rocket 4.4 21:26:23 10° NNE 21:32:23 76° ESE 21:38:16 10° S
ARGOS 4.5 21:29:23 15° ESE 21:32:40 25° ENE 21:37:01 10° NNE
Lacrosse 5 rocket 3.5 21:31:59 10° W 21:35:24 28° NW 21:38:57 10° NNE
CZ-4 SHROUD 3.3 21:34:31 22° SSE 21:36:20 58° ENE 21:39:27 10° N
Tsikada Rocket 4.1 21:34:35 10° S 21:40:52 60° E 21:47:08 10° NNE
Cosmos 1331 Rocket 4.4 21:37:22 10° NNW 21:42:29 59° WSW 21:47:14 12° S
Cosmos 1513 Rocket 4.5 21:36:25 10° N 21:42:45 82° E 21:48:22 13° S
Cosmos 1743 4.4 21:39:56 10° NNW 21:43:21 31° W 21:46:44 10° SSW
DEBRIS 2.4 21:39:10 10° NW 21:44:14 73° NNE 21:45:17 31° ESE
Cosmos 1302 Rocket 4.0 21:46:36 10° NNW 21:51:52 85° WSW 21:55:30 20° SSE
MetOp-B 4.2 21:49:01 21° SSE 21:52:34 65° ENE 21:57:53 10° N
Cosmos 2285 Rocket 4.3 21:46:21 10° NNW 21:52:36 65° WSW 21:58:06 14° S
SeaSat 1 2.4 21:50:09 22° SSE 21:53:25 90° SSW 21:58:24 10° NNW
GRACE-1 3.9 21:53:40 10° N 21:56:33 84° W 21:57:34 36° S
GRACE-2 3.9 21:54:06 10° N 21:56:59 83° W 21:57:58 37° S
Terra 3.6 21:56:20 15° E 21:57:54 17° ENE 22:00:54 10° NNE
CZ-4B R/B 3.5 21:54:22 10° NNE 21:59:25 67° ESE 22:03:35 16° S
Cosmos 1515 4.2 21:58:52 34° SE 21:59:49 41° E 22:03:28 10° NNE
Cosmos 1603 3.6 21:54:46 10° SSW 22:00:23 84° ESE 22:06:01 10° NNE
UNK 4.2 21:56:14 10° NNE 22:01:39 86° ESE 22:07:21 10° SSW
Cosmos 1346 Rocket 4.3 22:03:05 20° E 22:03:05 20° E 22:05:35 10° NE
APEX 4.0 22:00:28 10° NNW 22:04:34 64° WSW 22:07:37 24° S
Timation 1 Rocket 4.3 21:59:41 10° NNW 22:05:45 87° WSW 22:09:16 26° SSE
Cosmos 1238 4.2 22:05:02 47° SSE 22:05:47 67° E 22:08:48 10° NNE
Cosmos 1602 Rocket 4.0 22:01:34 10° SSW 22:06:01 64° W 22:10:28 10° N
Cosmos 1461 2.8 22:05:26 10° NNW 22:09:44 89° ENE 22:11:08 41° SSE
PSLV R/B 4.3 22:09:28 26° SSW 22:10:43 39° W 22:13:40 10° NNW
Cosmos 1825 Rocket 4.0 22:10:25 36° SE 22:11:28 43° E 22:15:41 10° NNE
Cosmos 1812 Rocket 3.6 22:13:38 10° N 22:18:02 80° W 22:19:55 34° S
ATLAS 3B R/B 3.2 22:16:52 18° S 22:22:22 47° ESE 22:29:32 10° NE
Envisat 4.0 22:19:51 15° SSW 22:23:37 41° W 22:28:24 10° NNW
USA 245 4.3 22:20:30 28° SSE 22:23:56 89° WSW 22:29:26 10° NNW
Cosmos 1634 Rocket 4.0 22:19:15 10° N 22:25:22 61° E 22:27:54 35° SE
YAOGAN 6 2.8 22:24:55 47° SSW 22:25:50 70° W 22:29:34 10° NNW
Cosmos 1943 3.3 22:23:34 32° SSE 22:25:59 55° ESE 22:31:32 10° NNE
Cosmos 407 Rocket 4.0 22:27:23 37° ESE 22:27:54 38° ESE 22:32:43 10° NE
USA 234 3.2 22:30:35 34° SE 22:33:43 79° SW 22:40:19 10° NW
USA 81 4.0 22:31:17 10° N 22:36:35 84° E 22:38:24 43° S
Abrixas rocket 3.3 22:33:52 10° WNW 22:36:37 37° WSW 22:36:37 37° WSW
Cosmos 1943 Rocket 3.7 22:36:12 10° N 22:40:28 22° NE 22:42:15 19° E
Cosmos 1766 4.3 22:38:54 10° N 22:42:13 34° ENE 22:42:13 34° ENE
Cosmos 2279 Rocket 4.2 22:44:58 10° N 22:51:08 57° E 22:52:42 45° SE
CZ-4C R/B 3.5 22:51:16 67° SSW 22:51:45 77° WSW 22:55:56 10° NNW
SAR-Lupe-2 4.0 22:56:08 57° NNE 22:56:08 57° NNE 22:59:07 10° N
Cosmos 1953 Rocket 3.5 22:55:36 66° SSW 22:56:09 79° W 23:00:35 10° N
PSLV R/B 4.3 22:52:52 10° W 22:55:24 43° W 22:55:24 43° W
Atlas Centaur 2 3.3 22:51:21 10° WSW 22:59:03 47° S 23:00:56 41° SE
H-2A R/B 1.8 22:59:58 65° SE 23:00:36 76° ENE 23:05:37 10° N
Cosmos 1992 Rocket 4.2 22:59:47 10° NNW 23:04:57 61° WSW 23:05:55 51° SSW
COSMOS 2455 3.8 23:01:19 10° SW 23:07:03 45° WNW 23:12:49 10° NNE
Cosmos 2369 Rocket 2.1 23:06:34 10° NNW 23:12:16 82° WSW 23:13:08 65° S
ARGOS 4.1 23:10:54 31° SW 23:12:38 40° W 23:17:45 10° NNW
IGS 5A 3.6 23:13:13 73° N 23:13:13 73° N 23:16:59 10° NNW
Spot 4 3.7 23:14:25 80° E 23:14:30 80° ENE 23:19:18 10° N
Cosmos 1953 3.5 23:10:47 10° N 23:13:33 34° NE 23:13:33 34° NE
Landsat 7 4.3 23:18:57 48° WSW 23:19:24 49° W 23:24:03 10° NNW
DMSP B5D2-2 4.1 23:14:32 10° N 23:19:50 81° WNW 23:20:42 63° SW
Cosmos-2242 3.4 23:18:11 10° N 23:21:58 60° NNE 23:21:58 60° NNE
Lacrosse 4 Rocket 2.1 23:31:19 49° NW 23:31:19 49° NW 23:34:52 10° NNE
COSMOS 2406 3.7 23:32:43 45° E 23:32:43 45° E 23:37:22 10° NE
Cosmos 2263 4.1 23:28:08 10° NNW 23:33:45 76° WSW 23:34:04 73° SW
CARTOSAT-1 4.5 23:34:42 42° W 23:34:42 42° W 23:38:29 10° NNW
Terra 2.3 23:35:13 49° W 23:35:13 49° W 23:39:50 10° NNW
Cosmos 676 Rocket 4.2 23:35:11 57° WSW 23:35:59 66° WNW 23:41:19 10° NNE
Cosmos 1140 Rocket 3.6 23:49:34 67° NE 23:49:34 67° NE 23:54:11 10° NNE
Cosmos 1092 Rocket 3.9 23:52:56 72° ESE 23:53:16 74° E 23:59:33 10° N
